Weather History for Alexandria, MN

Change the Weather History Date:

Monday, May 13, 2013

  Actual Average Record
Temperature  
Mean Temperature 62 °F -  
Max Temperature 82 °F 65 °F 93 °F (2007)
Min Temperature 43 °F 43 °F 22 °F (1953)
Degree Days  
Heating Degree Days 2    
Growing Degree Days 12 (Base 50)    
Moisture  
Dew Point 32 °F    
Average Humidity 35    
Maximum Humidity 47    
Minimum Humidity 23    
Precipitation  
Precipitation 0.00 in - - ()
Sea Level Pressure  
Sea Level Pressure 29.87 in    
Wind  
Wind Speed 11 mph (South)    
Max Wind Speed 25 mph    
Max Gust Speed 34 mph    
Visibility 10 miles    
Events      
Averages and records for this station are not official NWS values.
T = Trace of Precipitation, MM = Missing Value Source: NWS Daily Summary

Daily Weather History Graph

Daily Weather History Graph

Search for Another Location

Airport:

Trip Planner

Search our weather history database for the weather conditions in past years. The results will help you decide how hot, cold, wet, or windy it might be!

Date:

Astronomy

May. 13, 2013 Rise Set
Actual Time 5:51 AM CDT 8:44 PM CDT
Civil Twilight 5:17 AM CDT 9:19 PM CDT
Nautical Twilight 4:33 AM CDT 10:04 PM CDT
Astronomical Twilight 3:40 AM CDT 10:56 PM CDT
Moon 8:37 AM CDT (5/13) 11:54 PM CDT (5/13)
Length of Visible Light 16h 02m
Length of Day
14h 52m
Waxing Crescent, 12% of the Moon is Illuminated
May 13
Waxing Crescent
May 17
First Quarter
May 24
Full
May 31
Last Quarter
Jun 8
New

Hourly Weather History & Observations

Time (CDT) Temp. Windchill Dew Point Humidity Pressure Visibility Wind Dir Wind Speed Gust Speed Precip Events Conditions
12:53 AM 45.0 °F 41.8 °F 21.0 °F 39% 30.10 in 10.0 mi SE 5.8 mph - N/A   Clear
1:53 AM 44.1 °F 39.5 °F 21.0 °F 40% 30.09 in 10.0 mi SSE 8.1 mph - N/A   Clear
2:53 AM 43.0 °F 37.7 °F 21.0 °F 42% 30.07 in 10.0 mi SE 9.2 mph - N/A   Clear
3:53 AM 43.0 °F 38.2 °F 21.9 °F 43% 30.07 in 10.0 mi SSE 8.1 mph - N/A   Clear
4:53 AM 43.0 °F 37.7 °F 24.1 °F 47% 30.05 in 10.0 mi SSE 9.2 mph - N/A   Partly Cloudy
5:53 AM 45.0 °F 40.6 °F 24.1 °F 44% 30.04 in 10.0 mi SSE 8.1 mph - N/A   Mostly Cloudy
6:53 AM 45.0 °F 39.7 °F 24.1 °F 44% 30.04 in 10.0 mi SE 10.4 mph - N/A   Mostly Cloudy
7:53 AM 48.0 °F - 24.1 °F 39% 30.01 in 10.0 mi SSE 13.8 mph - N/A   Overcast
8:53 AM 48.9 °F - 25.0 °F 39% 29.97 in 10.0 mi SE 15.0 mph - N/A   Overcast
9:53 AM 54.0 °F - 25.0 °F 33% 29.95 in 10.0 mi SSE 13.8 mph - N/A   Scattered Clouds
10:53 AM 59.0 °F - 28.0 °F 31% 29.90 in 10.0 mi SSE 20.7 mph 25.3 mph 0.00 in   Partly Cloudy
11:53 AM 64.9 °F - 33.1 °F 31% 29.86 in 10.0 mi SSE 25.3 mph 29.9 mph N/A   Clear
12:53 PM 66.9 °F - 36.0 °F 32% 29.82 in 10.0 mi SSE 24.2 mph 34.5 mph N/A   Clear
1:53 PM 71.1 °F - 39.9 °F 32% 29.82 in 10.0 mi South 18.4 mph 27.6 mph N/A   Clear
3:53 PM 79.0 °F - 44.1 °F 29% 29.73 in 10.0 mi South 18.4 mph 28.8 mph N/A   Clear
4:53 PM 81.0 °F - 44.1 °F 27% 29.70 in 10.0 mi SW 16.1 mph 20.7 mph N/A   Clear
5:53 PM 82.0 °F - 46.0 °F 28% 29.66 in 10.0 mi SSW 9.2 mph - N/A   Clear
7:53 PM 79.0 °F - 48.0 °F 34% 29.63 in 10.0 mi South 5.8 mph - N/A   Clear
8:53 PM 78.1 °F - 37.0 °F 23% 29.64 in 10.0 mi WNW 10.4 mph - N/A   Clear
9:53 PM 72.0 °F - 39.0 °F 30% 29.67 in 10.0 mi WNW 10.4 mph - N/A   Clear
10:53 PM 70.0 °F - 37.9 °F 31% 29.67 in 10.0 mi WNW 8.1 mph - N/A   Clear
11:53 PM 70.0 °F - 37.0 °F 30% 29.68 in 10.0 mi NW 5.8 mph - N/A   Clear